Wetbulb
29.82 29.70 29.40 29.22 29.34 29.31 28.41 28.01 27.58 27.58 27.24 26.67 26.43 26.10 25.76 25.75 26.41 25.94 25.70 25.78 25.03 24.87 25.12 24.44 23.78 24.65 23.71 23.91 23.78 23.78 21.64 22.57 19.78 23.07 24.26 25.37 24.58 24.01 24.44 24.01 23.77 23.14 23.54
28.09 27.45 27.08 27.06 26.59 25.55 25.03 25.46 25.79 24.98 25.77 25.75 25.81 25.28 25.06 24.76 24.82 23.92 23.04 23.24 22.73 22.35 22.65 22.34 21.86 23.60 21.14 21.80 21.02 19.78 20.00 20.75 19.41 18.42 20.60 21.53 21.37 21.45 20.58 18.87 21.41 22.62 20.46
26.55 26.05 25.89 25.78 25.50 24.86 24.74 24.89 24.72 24.04 23.95 23.87 23.42 22.75 22.74 23.14 22.95 23.09 22.78 22.17 21.13 20.21 20.08 19.58 20.36 20.70 20.20 20.92 20.25 19.00 18.87 19.60 18.80 17.55 17.44 19.87 20.21 20.21 17.61 18.20 17.63 16.91 19.43
25.48 24.91 24.38 24.69 24.96 24.92 25.15 25.06 24.89 24.73 24.17 24.11 23.93 22.96 22.01 21.42 21.09 20.50 20.13 19.38 19.19 19.73 20.54 19.62 19.04 19.62 19.38 19.90 20.32 18.85 18.74 16.76 16.26 15.72 15.60 15.67 16.50 17.23 14.97 12.28 10.96 13.83 13.28
23.77 23.86 23.94 24.74 24.43 24.22 24.00 24.13 24.21 23.98 23.81 23.94 23.35 23.22 23.63 23.35 21.77 18.67 18.43 17.12 16.90 16.58 17.39 19.26 18.57 19.62 22.46 22.09 20.60 18.94 18.24 16.32 15.09 14.02 13.44 13.39 13.17 11.63 9.79 10.64 9.24 10.26 10.89
22.22 21.64 22.52 22.67 23.24 23.75 24.16 24.27 23.91 23.22 22.77 22.47 21.94 22.15 22.33 23.97 25.83 24.57 20.47 17.54 17.39 16.96 16.29 16.61 17.66 17.60 19.36 21.09 21.40 21.01 19.75 15.74 13.32 12.78 12.04 9.44 9.42 9.15 9.21 8.63 8.26 5.61 2.90
20.88 21.01 21.19 21.48 21.29 21.60 22.00 21.84 21.47 21.44 22.04 21.57 22.11 22.84 22.34 22.87 26.19 24.67 22.46 19.59 18.30 17.22 16.61 15.74 16.20 16.56 17.32 17.82 17.91 17.94 16.92 17.36 17.48 14.05 9.47 8.66 7.02 8.65 9.70 8.06 6.98 6.37 4.65
19.11 19.53 20.26 19.92 19.24 19.50 19.38 18.81 19.12 19.66 19.15 19.51 20.08 21.03 22.03 24.30 25.86 24.42 22.72 19.54 18.33 17.84 16.32 15.06 14.07 13.84 16.95 17.47 14.38 12.55 11.67 12.29 13.33 12.80 10.44 9.27 10.38 11.61 10.56 9.23 8.05 4.67 4.44
16.42 16.47 17.10 17.60 16.96 17.25 17.02 17.19 17.98 18.01 17.87 17.61 18.46 18.77 19.38 22.00 25.40 23.79 20.21 18.28 17.27 16.28 16.06 14.45 13.40 13.39 18.58 19.28 12.60 8.55 8.69 10.25 13.21 13.36 13.01 13.44 13.90 14.12 12.74 8.32 1.16 -0.43 -2.33
15.69 16.03 16.44 16.61 15.99 15.20 15.89 15.93 17.17 17.81 17.69 17.90 17.58 17.74 18.53 18.72 24.33 23.50 19.63 17.31 14.41 13.52 13.44 12.55 14.27 15.34 17.76 17.78 11.16 6.39 7.01 9.23 5.16 4.43 3.83 5.84 7.58 6.92 11.29 6.78 3.89 -2.15 -2.13
16.78 16.70 16.41 16.52 16.06 16.25 16.36 16.57 16.22 15.91 16.28 15.81 15.94 16.91 17.52 17.83 19.36 22.17 21.34 16.14 14.42 11.54 10.55 8.77 9.37 16.32 16.39 15.90 14.74 7.41 10.61 10.41 2.67 0.35 0.39 0.79 1.69 3.00 4.05 4.86 4.55 1.79 -1.53
14.61 14.53 14.67 15.11 17.26 16.59 14.23 15.90 15.81 14.88 13.77 13.45 13.03 14.83 16.29 16.64 19.92 19.77 19.91 18.33 17.55 10.29 8.68 8.13 8.59 15.11 14.45 13.55 10.55 13.57 13.61 6.38 -0.30 -2.07 -3.07 -2.74 -1.21 0.38 2.18 2.96 3.21 2.90 3.19
10.76 8.87 10.27 12.39 15.28 16.24 14.14 14.23 14.42 13.74 12.98 12.87 13.04 11.60 12.96 14.95 15.13 18.24 17.07 16.22 15.64 10.40 10.10 10.02 11.90 12.10 11.12 7.31 9.31 10.43 4.33 -0.60 -1.98 -4.32 -4.27 -2.84 -0.47 1.32 1.39 0.89 2.31 2.98 3.00
6.71 8.86 10.68 11.29 12.31 13.07 14.74 14.34 13.13 13.12 12.33 12.81 12.27 9.97 9.90 12.13 13.05 14.15 12.15 8.80 12.31 9.89 5.86 1.17 7.08 7.03 6.52 6.25 0.62 2.01 0.39 -0.70 -2.49 -3.57 -3.48 -1.64 -0.13 -1.02 -1.73 0.31 -0.33 0.63 -0.15
8.32 9.67 9.11 9.60 8.45 9.93 12.55 12.26 12.53 14.74 16.19 9.16 10.25 10.24 5.48 7.23 13.07 16.87 15.24 11.23 8.97 11.36 -1.63 -8.80 -4.51 -2.28 -2.53 -2.31 -2.01 -1.93 -1.91 -2.21 -3.65 -2.97 -3.36 -3.47 -3.11 -2.85 -2.37 0.53 0.34 -0.30 -2.56
8.47 8.30 7.74 7.99 6.92 7.94 6.81 5.43 16.20 16.09 17.07 18.01 17.92 14.93 11.36 15.74 17.13 16.51 16.19 15.41 13.97 13.31 -10.80 -11.10 -5.69 -4.84 -4.90 -4.58 -4.64 -4.31 -3.48 -3.74 -3.50 -3.42 -3.76 -4.03 -4.55 -3.83 -2.76 -1.16 -0.89 -1.52 -1.61
3.05 4.78 4.48 5.89 4.67 2.35 1.11 1.20 -0.58 4.63 14.61 14.99 14.82 15.08 14.74 14.97 15.67 15.13 14.52 13.93 10.69 6.64 -15.57 -12.30 -8.47 -6.39 -5.82 -4.90 -4.66 -4.63 -5.23 -3.87 -3.37 -4.39 -4.68 -4.66 -4.23 -3.81 -3.53 -3.36 -1.52 -0.15 -0.03
-3.00 2.60 -0.21 -0.76 -1.06 -1.44 -1.14 -2.65 -4.09 -5.39 -3.92 -0.90 8.22 11.83 12.78 13.38 13.99 13.55 12.40 5.91 -10.29 -8.60 -17.28 -13.58 -9.32 -6.91 -5.80 -5.22 -4.52 -4.77 -4.43 -4.24 -4.58 -4.57 -4.83 -4.68 -4.17 -4.29 -3.56 -2.67 -0.84 -0.34 0.27
-0.49 -1.38 -2.58 -3.81 -5.68 -4.28 -2.83 -3.03 -4.39 -5.19 -5.66 -6.79 -5.13 4.01 3.07 9.83 11.67 11.06 9.06 -13.52 -14.49 -11.49 -11.71 -10.73 -9.33 -7.17 -6.23 -5.16 -5.06 -4.84 -4.74 -4.85 -4.62 -5.18 -4.92 -3.43 -2.45 -1.92 -2.43 -1.28 -0.39 0.64 1.08
-6.48 -0.95 -1.71 -4.28 -5.48 -4.04 -3.28 -4.41 -5.18 -6.27 -7.43 -8.28 -6.85 -5.97 -8.53 -4.11 -11.10 -13.88 -14.52 -16.51 -15.39 -12.28 -11.25 -11.87 -7.53 -7.29 -6.77 -6.49 -6.01 -5.55 -5.43 -5.03 -4.39 -3.38 -2.50 -1.67 -1.35 -0.60 -1.04 -0.27 0.38 0.41 0.78
-2.24 -8.71 -2.33 -4.40 -5.41 -6.15 -6.75 -6.93 -7.28 -9.15 -9.83 -10.11 -7.55 -6.63 10.50 -3.59 -14.14 -13.69 -11.57 -12.75 -12.22 -11.92 -11.18 -8.61 -8.03 -7.51 -6.75 -6.52 -6.38 -6.06 -5.71 -4.89 -3.60 -2.10 -1.12 -0.71 0.42 0.12 1.00 1.01 1.26 2.38 4.25
0.18 -3.28 -7.18 -4.78 -4.76 -2.72 -4.40 -6.82 -9.10 -10.13 -9.14 -8.10 -6.45 -8.59 8.07 -11.24 -11.77 -10.45 -10.85 -10.40 -10.66 -11.78 -11.05 -9.33 -7.04 -6.72 -6.57 -6.71 -6.54 -6.37 -5.68 -4.63 -2.94 -1.05 0.63 1.13 1.42 1.49 2.39 3.13 5.98 8.10 7.09
-0.57 -0.87 -3.15 -2.82 -1.43 -1.61 -7.54 -9.96 -8.66 -9.06 -8.55 -11.54 -9.43 -7.66 -11.23 -10.08 -10.29 -10.74 -10.07 -10.43 -10.64 -8.58 -9.39 -11.78 -8.15 -7.46 -5.93 -5.49 -4.77 -4.74 -5.16 -3.90 -1.21 0.47 0.08 1.85 3.36 4.34 7.91 8.07 7.27 7.20 7.49
0.06 1.16 0.56 -0.11 0.47 -0.51 -2.05 -3.10 -5.73 -4.83 -7.55 -8.09 -9.01 -9.62 -8.13 -9.46 -10.22 -10.42 -9.80 -9.82 -10.37 -10.15 -11.08 -8.26 -7.99 -8.13 -7.21 -5.94 -4.27 -3.00 -1.24 -0.12 1.79 3.08 4.66 7.42 10.73 9.44 8.31 7.68 8.07 8.07 8.22
1.20 1.54 1.62 3.16 3.04 -0.40 -1.42 -0.91 -1.46 -3.60 -7.91 -7.18 -7.48 -10.13 -10.09 -10.02 -9.43 -10.21 -10.59 -10.14 -9.83 -10.39 -8.65 -8.47 -7.59 -7.66 -7.28 -5.55 -5.05 -4.48 -1.88 1.37 4.99 8.68 13.36 14.30 9.84 8.66 8.62 8.72 8.68 8.77 8.93
4.14 4.24 3.89 4.72 4.66 2.19 1.34 -0.78 -1.38 -4.18 -4.98 -5.43 -7.48 -9.80 -10.10 -9.23 -9.05 -10.38 -10.74 -11.06 -9.57 -9.78 -9.97 -8.56 -7.26 -7.68 -6.93 -4.51 -3.15 1.47 4.45 9.02 12.10 15.00 15.77 11.74 9.71 9.29 9.62 9.31 9.42 9.57 9.50
MSLP
1013.21 1014.06 1015.12 1015.57 1016.25 1016.82 1016.91 1017.48 1018.34 1019.56 1018.93 1019.85 1019.61 1020.76 1022.01 1022.33 1022.73 1023.11 1023.75 1024.49 1024.75 1025.38 1025.66 1025.63 1026.01 1026.42 1026.46 1026.41 1026.38 1026.45 1026.35 1025.91 1025.86 1024.92 1024.49 1024.02 1023.38 1022.84 1022.53 1022.39 1022.06 1021.64 1021.08
1014.81 1015.44 1016.57 1017.91 1018.95 1018.73 1018.86 1019.85 1019.79 1019.86 1020.89 1021.69 1021.93 1022.51 1023.41 1024.05 1024.31 1024.54 1025.24 1025.95 1026.25 1026.43 1026.77 1027.05 1027.40 1027.24 1027.15 1027.43 1027.55 1027.47 1027.10 1026.62 1026.85 1025.43 1024.81 1024.12 1023.93 1023.41 1023.15 1023.02 1022.40 1021.93 1021.48
1016.92 1017.81 1018.75 1019.69 1020.43 1019.98 1020.66 1021.75 1021.11 1020.47 1022.76 1023.94 1023.37 1024.33 1024.96 1025.28 1025.68 1026.20 1026.48 1026.67 1027.15 1027.83 1028.18 1028.02 1028.02 1027.94 1027.94 1027.86 1027.80 1027.65 1027.56 1027.34 1026.89 1026.23 1025.20 1024.58 1023.97 1023.55 1023.36 1023.08 1022.62 1022.31 1021.65
1019.08 1019.76 1020.55 1021.56 1021.91 1021.71 1022.34 1023.40 1023.09 1022.81 1023.84 1025.04 1025.16 1025.51 1026.21 1026.69 1027.32 1027.86 1027.81 1027.99 1028.39 1028.73 1028.63 1028.59 1028.71 1028.60 1028.43 1028.37 1028.08 1027.72 1027.48 1027.27 1027.00 1026.45 1025.56 1025.03 1024.48 1024.13 1023.91 1023.07 1022.20 1022.20 1021.50
1021.34 1021.92 1022.47 1023.26 1023.71 1024.10 1024.79 1025.14 1025.01 1024.66 1025.78 1026.51 1026.49 1026.52 1027.26 1027.63 1028.38 1028.89 1029.20 1029.27 1029.22 1029.27 1029.63 1029.49 1029.37 1029.25 1029.05 1028.67 1028.13 1027.83 1027.33 1027.35 1027.05 1026.64 1026.14 1025.40 1024.89 1024.44 1024.13 1023.82 1022.87 1022.06 1021.64
1024.00 1024.16 1024.72 1025.09 1025.51 1026.15 1026.07 1026.14 1026.21 1027.05 1027.79 1027.89 1027.66 1028.27 1028.67 1028.70 1028.90 1029.23 1029.71 1029.90 1029.70 1029.69 1029.87 1030.03 1029.80 1030.05 1029.60 1029.03 1028.52 1028.31 1027.89 1027.46 1027.17 1026.95 1026.64 1026.31 1025.86 1025.49 1025.05 1024.22 1023.50 1022.40 1020.82
1025.80 1025.91 1026.29 1026.86 1027.29 1027.82 1027.78 1028.00 1027.72 1028.66 1029.12 1028.49 1029.43 1029.79 1029.29 1029.67 1029.41 1029.46 1029.72 1029.99 1030.09 1030.01 1030.14 1030.58 1030.45 1030.53 1030.06 1029.25 1028.97 1028.76 1028.82 1028.51 1027.97 1027.56 1027.53 1027.48 1026.63 1026.16 1025.20 1024.49 1024.60 1023.55 1022.22
1027.38 1027.83 1028.41 1028.59 1028.64 1029.19 1029.20 1028.70 1029.69 1030.38 1029.90 1030.47 1030.60 1030.35 1030.06 1030.06 1029.99 1030.42 1030.54 1030.61 1030.20 1030.33 1030.69 1030.93 1030.90 1031.04 1030.05 1029.48 1029.64 1029.42 1029.30 1029.10 1028.49 1028.61 1028.34 1027.96 1027.07 1026.21 1025.84 1025.13 1024.05 1023.54 1022.12
1029.03 1029.40 1029.49 1029.45 1029.70 1029.85 1030.20 1031.17 1031.37 1030.73 1031.41 1031.80 1031.09 1031.50 1031.48 1030.87 1030.94 1031.27 1031.23 1030.79 1031.20 1030.87 1030.76 1031.76 1032.28 1031.48 1030.44 1029.79 1029.78 1030.22 1029.92 1029.14 1029.29 1029.00 1028.42 1027.90 1027.06 1026.16 1025.30 1024.56 1024.22 1023.36 1021.31
1030.50 1030.97 1031.18 1031.17 1031.43 1031.78 1032.00 1031.83 1032.04 1032.07 1032.24 1032.48 1032.54 1032.84 1032.51 1031.81 1031.88 1031.18 1031.94 1032.65 1031.87 1031.99 1031.37 1032.96 1032.61 1031.09 1030.76 1030.37 1029.96 1030.19 1030.00 1029.64 1029.51 1028.96 1028.81 1027.78 1026.83 1025.95 1025.12 1025.13 1024.28 1023.15 1021.78
1031.91 1032.15 1032.29 1032.46 1032.57 1032.70 1032.91 1032.96 1032.86 1032.98 1032.81 1032.80 1032.55 1033.36 1032.92 1033.07 1032.87 1032.89 1032.68 1032.81 1031.87 1033.58 1032.77 1032.13 1033.04 1031.60 1030.85 1030.71 1030.42 1031.14 1030.09 1028.86 1029.12 1029.33 1028.87 1027.88 1026.90 1025.92 1024.91 1024.14 1023.51 1023.06 1021.57
1033.02 1033.01 1033.05 1033.47 1033.68 1033.24 1033.52 1033.81 1033.94 1033.39 1032.94 1034.21 1033.90 1033.14 1033.34 1033.57 1033.88 1033.91 1032.74 1033.35 1033.90 1032.49 1033.63 1033.88 1032.73 1031.89 1031.41 1031.65 1031.96 1030.22 1029.01 1029.75 1030.23 1029.74 1029.01 1028.01 1026.56 1024.98 1023.58 1022.99 1022.45 1021.10 1019.81
1034.21 1034.69 1034.84 1034.16 1033.94 1034.23 1034.35 1034.16 1033.99 1034.10 1034.40 1033.96 1034.26 1034.55 1034.69 1034.73 1034.43 1033.92 1034.49 1033.82 1032.95 1033.88 1033.48 1033.52 1033.48 1033.17 1032.96 1032.35 1031.12 1030.26 1030.87 1031.11 1030.52 1029.54 1028.56 1027.32 1025.83 1024.50 1023.48 1022.32 1020.64 1018.88 1017.17
1035.72 1035.55 1035.30 1035.12 1035.04 1034.98 1034.94 1035.03 1035.15 1035.15 1035.14 1035.07 1035.04 1035.16 1035.22 1034.87 1034.46 1034.13 1033.67 1033.85 1034.24 1034.38 1034.78 1035.40 1034.53 1033.58 1032.90 1032.21 1032.09 1031.96 1031.45 1030.74 1029.97 1029.25 1028.38 1027.10 1025.62 1024.28 1022.82 1021.14 1019.28 1017.39 1015.76
1035.99 1035.96 1035.96 1035.98 1036.02 1036.00 1035.80 1035.65 1035.70 1035.54 1035.22 1035.58 1035.74 1035.98 1035.70 1035.11 1034.66 1034.39 1034.51 1034.84 1034.88 1034.54 1035.78 1035.69 1034.62 1033.96 1033.44 1032.74 1032.27 1031.60 1030.85 1030.13 1029.79 1029.20 1028.17 1026.62 1025.05 1023.53 1021.64 1020.04 1018.60 1016.75 1015.45
1036.51 1036.55 1036.54 1036.54 1036.64 1036.71 1036.65 1036.71 1036.14 1036.32 1036.26 1035.95 1035.98 1036.04 1036.29 1035.62 1035.58 1035.69 1035.11 1034.62 1034.54 1034.24 1035.91 1035.98 1035.44 1035.02 1034.56 1033.86 1033.19 1032.17 1031.17 1030.34 1029.65 1028.83 1027.67 1026.31 1024.66 1022.81 1020.73 1018.87 1017.88 1016.19 1013.79
1037.35 1037.28 1037.37 1037.56 1037.74 1037.86 1037.97 1038.10 1037.88 1037.32 1036.58 1036.52 1036.54 1036.43 1036.66 1036.59 1036.15 1035.65 1035.07 1034.75 1035.28 1035.34 1036.48 1036.61 1036.36 1035.82 1035.10 1034.23 1033.35 1032.31 1031.12 1030.08 1029.36 1028.40 1027.08 1025.33 1023.70 1021.81 1020.29 1018.08 1016.08 1014.31 1011.81
1037.90 1037.98 1038.14 1038.32 1038.46 1038.59 1038.70 1038.79 1038.75 1038.99 1038.74 1038.37 1037.63 1037.25 1036.95 1036.71 1036.15 1035.67 1035.59 1036.18 1036.82 1036.94 1036.90 1036.93 1036.43 1035.67 1034.80 1033.85 1032.73 1031.74 1030.69 1029.66 1028.65 1027.35 1025.78 1024.09 1022.48 1021.14 1018.93 1016.77 1014.66 1012.63 1010.37
1038.19 1038.41 1038.66 1038.79 1038.90 1039.07 1039.21 1039.32 1039.42 1039.52 1039.64 1039.23 1038.70 1037.90 1038.16 1037.33 1036.52 1036.12 1036.27 1038.00 1037.83 1037.39 1036.87 1036.43 1035.89 1035.24 1034.35 1033.30 1032.22 1031.32 1030.44 1029.11 1027.63 1026.08 1024.38 1022.86 1021.31 1019.79 1017.46 1015.44 1013.42 1010.88 1008.69
1038.35 1038.62 1038.81 1039.08 1039.32 1039.45 1039.64 1039.85 1040.04 1040.07 1040.06 1039.82 1039.35 1038.71 1038.70 1038.03 1037.63 1037.88 1037.80 1037.88 1037.58 1037.18 1036.63 1036.11 1035.37 1034.59 1033.70 1032.75 1031.74 1030.78 1029.58 1028.09 1026.43 1024.82 1023.12 1021.49 1019.71 1018.15 1016.15 1013.90 1011.58 1009.18 1006.50
1038.27 1038.55 1038.74 1039.04 1039.23 1039.39 1039.48 1039.72 1039.83 1039.96 1040.26 1039.74 1039.10 1038.26 1036.70 1037.18 1037.80 1037.84 1037.68 1037.49 1037.32 1036.86 1036.34 1035.63 1034.88 1034.04 1033.05 1032.17 1031.26 1030.09 1028.77 1027.06 1025.41 1023.62 1021.81 1020.04 1018.28 1016.38 1014.52 1012.33 1009.88 1007.29 1004.31
1037.85 1038.13 1038.44 1038.66 1038.77 1038.91 1039.25 1039.56 1039.63 1039.64 1039.57 1039.44 1038.71 1038.12 1037.01 1037.95 1037.77 1037.69 1037.51 1037.14 1036.66 1036.31 1035.79 1035.27 1034.31 1033.37 1032.36 1031.52 1030.54 1029.34 1027.90 1026.14 1024.24 1022.63 1020.73 1018.69 1016.87 1014.97 1012.89 1010.45 1007.54 1004.75 1002.26
1037.19 1037.53 1037.87 1038.07 1038.21 1038.44 1038.71 1038.81 1039.09 1039.19 1039.16 1038.92 1038.57 1038.20 1037.79 1037.66 1037.64 1037.44 1037.13 1036.57 1036.05 1035.41 1034.95 1034.63 1033.67 1032.51 1031.37 1030.54 1029.59 1028.49 1027.13 1025.09 1023.41 1021.98 1019.68 1017.32 1015.17 1013.20 1010.88 1008.37 1005.86 1003.32 1000.67
1036.54 1036.73 1036.98 1037.21 1037.60 1037.94 1038.18 1038.34 1038.29 1038.36 1038.49 1038.41 1038.22 1037.98 1037.79 1037.58 1037.35 1036.94 1036.42 1035.94 1035.44 1034.90 1034.42 1033.63 1032.78 1031.85 1030.81 1029.70 1028.36 1026.95 1025.45 1023.77 1022.53 1020.63 1018.37 1015.69 1013.14 1011.73 1009.42 1007.19 1004.74 1002.08 999.33
1035.85 1036.10 1036.35 1036.54 1036.78 1037.20 1037.50 1037.56 1037.70 1037.76 1037.74 1037.67 1037.60 1037.46 1037.23 1037.03 1036.76 1036.30 1035.93 1035.42 1034.92 1034.50 1033.62 1032.81 1031.85 1030.96 1029.95 1028.60 1027.13 1025.50 1023.81 1022.38 1020.98 1018.71 1016.07 1014.17 1012.79 1010.60 1008.41 1006.17 1003.55 1000.65 997.92
1034.82 1035.15 1035.51 1035.99 1036.23 1036.46 1036.68 1036.87 1036.98 1037.05 1037.14 1037.10 1037.00 1036.96 1037.00 1036.68 1036.25 1035.96 1035.57 1035.12 1034.53 1033.93 1033.18 1032.12 1031.01 1030.14 1028.90 1027.40 1025.78 1024.09 1022.61 1021.06 1019.07 1016.74 1014.88 1013.63 1011.56 1009.49 1007.45 1004.96 1002.05 999.49 996.59
Wind_Speed
23 22 22 20 19 18 20 20 21 19 21 20 22 21 19 19 17 17 17 15 16 14 13 14 14 11 8 8 7 6 6 5 4 4 5 9 10 9 8 8 10 10 9
23 25 24 21 19 19 22 20 20 22 21 19 20 20 18 17 16 18 17 15 15 15 14 14 12 8 10 8 6 7 7 6 5 9 10 7 9 7 7 12 9 9 10
23 23 22 20 18 22 22 18 20 25 20 18 20 19 18 17 16 16 15 14 14 13 11 12 10 11 10 7 7 7 7 7 6 7 8 8 8 8 10 9 11 11 11
22 22 22 19 18 20 20 18 19 21 20 18 18 18 17 16 15 13 13 13 12 10 9 11 11 11 12 10 8 7 6 7 7 7 8 8 8 9 9 12 13 11 12
21 20 20 19 18 19 18 17 18 20 18 16 17 17 15 13 11 11 11 10 10 10 10 9 11 14 20 17 9 10 9 8 8 8 9 9 9 12 13 12 13 13 12
18 19 17 18 17 16 16 17 18 18 16 16 17 15 14 11 24 22 12 9 10 10 10 8 8 11 15 20 21 20 16 12 11 10 9 12 14 14 12 13 13 14 13
16 17 17 16 16 15 15 15 17 16 14 17 15 13 14 13 22 21 20 9 9 9 10 11 11 10 13 14 18 19 17 19 17 12 12 12 15 14 15 15 14 14 15
17 16 14 14 15 13 14 16 15 11 14 13 13 14 14 15 24 20 18 9 9 11 11 11 12 13 16 16 14 14 13 12 12 10 12 12 12 13 11 12 15 14 14
15 14 13 13 14 14 15 12 9 12 11 10 12 13 12 14 25 23 16 11 11 11 11 11 12 12 22 24 14 13 12 12 13 20 19 22 22 23 19 11 10 12 15
14 13 12 12 12 11 10 11 10 10 11 9 11 10 12 13 23 26 17 7 10 8 10 9 14 18 22 22 12 11 11 11 11 11 12 15 16 16 23 11 10 12 13
10 11 11 11 11 10 9 8 9 9 10 9 11 8 10 10 13 19 21 9 9 6 7 10 8 22 22 21 19 9 13 14 14 9 10 10 11 11 10 10 11 11 15
10 11 11 9 7 7 8 8 8 7 10 6 5 7 7 9 15 17 21 18 14 8 9 7 9 22 22 20 13 22 23 17 7 8 8 10 11 11 11 12 16 16 15
10 7 5 7 9 8 8 7 6 6 6 8 7 5 4 5 5 16 16 19 19 9 9 15 18 18 19 13 20 22 14 7 8 9 10 11 11 13 16 16 16 19 20
6 5 5 7 8 7 6 6 6 6 6 6 6 6 6 6 7 6 7 7 11 8 10 6 11 13 14 14 8 10 7 7 8 10 11 12 13 12 13 13 16 16 17
5 5 5 5 5 5 7 6 7 7 7 2 3 3 3 5 8 14 13 7 5 9 4 2 5 8 9 10 10 10 9 9 9 10 11 13 14 14 15 14 15 17 17
6 5 4 4 4 5 3 3 11 10 11 12 11 7 2 12 14 15 16 17 17 18 4 4 8 8 9 9 10 11 11 12 11 11 12 13 14 15 16 16 15 15 18
5 3 3 4 4 3 4 4 4 6 10 12 13 13 12 13 15 16 18 19 18 13 2 4 6 7 8 9 9 10 12 12 13 12 13 14 14 15 18 17 17 17 20
4 6 3 2 3 3 3 2 2 3 4 4 9 10 10 14 15 14 15 12 6 6 2 4 7 7 9 10 10 11 12 12 12 13 14 15 15 14 16 17 18 20 20
3 3 3 3 3 3 3 3 2 2 3 3 4 6 7 14 14 13 12 1 4 5 5 6 6 8 9 10 11 11 12 13 14 15 13 14 14 14 17 18 19 29 28
4 5 4 3 2 1 1 1 1 2 3 3 3 4 4 3 3 3 2 2 3 5 5 6 8 8 9 10 11 11 12 13 14 14 15 14 15 14 17 20 20 22 23
4 3 4 3 2 2 2 2 2 2 3 3 4 4 14 1 3 3 4 4 5 5 6 7 8 9 10 10 11 11 13 14 14 15 15 15 16 17 18 19 20 22 23
5 5 3 4 3 3 2 2 2 3 4 4 5 4 14 2 3 4 5 5 5 5 5 7 9 10 10 10 11 12 14 16 16 15 16 17 18 18 19 20 22 23 24
5 5 4 2 3 3 2 3 3 3 4 4 4 4 3 4 4 5 5 5 5 7 5 5 9 10 10 10 10 12 14 16 15 16 19 19 19 18 19 23 24 24 24
5 5 6 5 4 3 3 3 4 5 4 5 4 5 5 4 5 5 6 5 5 6 5 8 9 13 13 13 12 13 13 15 13 17 25 22 16 25 22 23 23 29 27
6 5 5 5 5 4 4 4 4 4 4 4 4 4 4 4 5 5 5 5 6 6 9 9 9 12 14 19 21 23 23 25 23 27 19 19 25 30 25 23 27 27 32
9 8 6 5 4 4 4 4 4 4 4 4 4 4 4 5 5 5 5 6 7 7 10 9 12 16 19 17 20 24 27 28 27 33 19 19 21 22 22 28 35 26 31
Wind_Direction
70 71 68 61 60 67 75 73 72 70 66 63 68 73 69 65 66 73 71 70 69 66 59 57 56 43 42 34 28 25 19 9 343 297 343 329 327 333 341 354 341 332 331
69 68 67 68 67 72 68 70 75 75 66 66 71 72 71 67 65 68 70 65 63 60 55 54 49 43 45 32 27 12 16 3 318 325 317 327 327 334 347 337 335 333 327
71 72 71 70 71 71 70 69 74 78 75 69 70 67 64 66 65 62 67 70 68 66 62 54 43 43 35 24 22 14 8 348 337 317 311 322 327 331 340 328 327 325 322
71 71 72 69 66 69 71 65 67 73 72 66 69 71 68 63 62 62 62 63 60 55 58 58 44 35 31 11 14 6 1 353 340 328 325 326 326 340 335 331 327 329 325
71 70 69 68 67 69 72 72 67 69 67 69 66 63 62 69 67 59 57 62 62 56 41 41 45 31 24 15 9 1 357 352 345 336 330 329 338 343 339 331 319 322 322
70 72 73 69 66 65 69 69 70 70 73 70 64 64 62 65 65 68 71 63 59 54 47 34 37 26 5 10 10 3 6 357 351 340 343 342 335 333 327 328 324 326 321
69 68 68 70 69 65 66 66 67 66 66 65 63 65 68 62 59 59 55 54 57 53 46 29 22 15 354 3 9 4 8 358 357 356 343 334 327 323 323 326 317 310 309
65 68 70 71 70 66 66 60 60 65 62 59 58 56 54 52 52 48 48 46 48 44 44 31 21 5 356 360 3 0 358 349 349 353 331 324 314 319 317 312 317 305 292
63 61 58 58 63 60 58 62 63 66 70 66 56 51 50 46 45 41 37 33 32 34 34 23 12 355 355 357 5 352 342 339 352 336 334 326 323 322 319 321 309 310 306
58 59 58 61 65 67 67 57 55 59 64 65 68 53 51 41 39 37 40 27 26 20 19 8 3 355 358 358 17 352 335 339 347 339 323 317 315 306 312 305 301 298 297
64 64 63 63 65 65 71 68 65 60 57 52 51 42 49 37 34 35 32 26 34 5 2 6 353 347 357 357 5 323 327 353 342 322 313 307 305 298 297 296 293 282 282
61 60 53 48 61 57 60 60 57 54 50 50 44 43 40 39 22 27 28 26 18 28 12 339 347 351 353 351 346 341 348 350 318 312 306 302 301 300 303 298 286 275 263
55 44 38 40 47 52 53 49 53 51 48 38 38 28 21 27 17 26 19 19 18 22 8 355 345 347 346 342 344 343 351 318 311 310 308 301 301 298 299 291 288 286 283
79 66 53 56 47 39 48 52 51 52 46 40 35 32 8 2 355 5 23 27 5 0 14 336 338 348 350 346 332 324 312 311 312 305 299 292 294 298 296 296 299 304 301
80 68 61 55 62 57 52 57 44 18 53 49 41 38 2 353 356 1 360 357 350 340 5 302 348 353 344 339 333 329 325 321 313 303 298 299 297 297 295 298 295 298 290
65 48 44 47 38 43 54 28 55 58 44 34 29 26 29 352 349 347 349 352 352 350 25 359 345 337 328 325 322 316 311 307 302 298 295 292 290 292 293 295 291 286 289
90 69 55 55 50 45 37 47 24 348 21 22 12 357 353 346 340 343 346 347 346 352 13 328 313 307 300 300 298 298 298 298 297 290 286 286 287 286 296 291 292 292 295
81 89 94 94 87 69 61 43 45 37 349 324 345 339 330 332 331 330 331 357 340 331 303 284 291 293 295 294 295 296 296 296 293 289 284 283 286 287 292 291 295 298 299
122 96 94 77 60 63 39 28 24 353 312 289 326 326 343 317 318 322 331 147 279 293 292 293 283 285 287 290 291 292 291 290 289 288 284 289 290 292 291 291 293 299 300
106 132 133 130 129 96 70 49 359 314 302 299 303 279 300 315 337 299 285 271 276 274 281 279 292 287 287 288 292 292 292 292 292 292 293 293 291 289 290 294 295 298 297
152 141 138 122 134 167 170 188 227 267 267 272 267 261 297 154 280 276 282 281 272 276 283 289 291 288 287 288 289 292 293 293 292 293 296 296 296 297 297 293 293 294 290
155 161 173 177 177 184 194 192 221 241 256 267 277 287 311 342 280 276 277 275 270 262 262 275 287 284 283 287 291 293 293 292 294 297 300 298 299 297 296 294 295 302 301
161 164 174 175 181 166 193 218 221 238 255 263 273 283 279 272 269 267 271 273 277 283 279 268 280 286 287 286 283 280 283 285 293 297 296 297 300 295 301 307 306 304 303
175 179 181 187 184 199 214 224 231 230 239 250 259 265 271 268 268 270 275 278 278 281 273 282 282 279 289 290 288 286 282 284 292 293 296 296 303 315 312 307 307 305 302
185 186 189 191 194 201 221 230 239 239 241 244 261 260 266 276 281 278 277 279 284 290 292 288 284 286 287 292 291 290 291 298 301 296 301 315 315 314 310 309 307 306 305
190 191 192 196 200 197 209 222 233 235 242 251 253 259 267 276 276 280 284 287 293 293 292 289 291 292 293 295 293 296 303 309 310 313 322 321 316 314 313 311 310 309 309